Flag Weather past 2 weeks in Steffisburg, Bern, Switzerland

Now
61 °F

Sunny.


Feels Like: 61 °F
Forecast: 44 / 66 °F
Wind: No wind

Location: Bern / Belp

Current Time: Nov 1, 2014 at 1:40:44 PM

Latest Report: Nov 1, 2014 at 12:50 PM


Visibility: 10 mi

Pressure: 30.21 "Hg

Humidity: 59%

Dew point: 46 °F

Location of SteffisburgLocation

Historic Weather in Steffisburg — Graph

°F

Steffisburg temperature yesterday

Maximum temperature yesterday: 63 °F (at 1:20 PM)
Minimum temperature yesterday: 36 °F (at 3:50 AM)
Average temperature yesterday: 46 °F

Past Weeks' High & Low Weather Summary

 TemperatureHumidityPressure
High73 °F (Oct 19, 3:20 PM)100% (Oct 17, 7:50 PM)30.33 "Hg (Oct 17, 7:50 PM)
Low30 °F (Oct 24, 7:20 AM)49% (Oct 30, 2:50 PM)29.83 "Hg (Oct 21, 7:50 PM)
Average50 °F86%30.18 "Hg
* Reported Oct 17 1:20 PM — Nov 1 12:20 PM, Steffisburg, Weather by CustomWeather, © 2014

Note: Actual official high and low records may vary slightly from our data, if they occured in-between our weather recording intervals... More about our weather records

Advertising

Steffisburg weather history for previous 24 hours

 ConditionsComfort  
Time TempWeatherWind HumidityBarometerVisibility
12:20 PM
Nov 1
61 °FSunny.2 mph55%30.24 "Hg10 mi
11:50 AM57 °FSunny.No wind67%30.24 "Hg10 mi
11:20 AM55 °FSunny.1 mph72%30.27 "Hg10 mi
10:50 AM52 °FSunny.No wind88%30.27 "Hg10 mi
10:20 AM48 °FSunny.2 mph100%30.27 "Hg10 mi
9:50 AM46 °FPassing clouds.No wind100%30.27 "HgN/A
9:20 AM41 °FLight fog.1 mph100%30.27 "Hg2 mi
8:50 AM39 °FFog.No wind100%30.27 "Hg1 mi
8:20 AM37 °FFog.1 mph100%30.27 "Hg0 mi
7:50 AM37 °FFog.No wind100%30.27 "Hg0 mi
7:20 AM37 °FFog.1 mph100%30.24 "Hg0 mi
6:50 AM37 °FFog.1 mph100%30.24 "Hg0 mi
6:20 AM39 °FLight rain. Dense fog.1 mph100%30.24 "Hg0 mi
5:50 AM39 °FFog.1 mph100%30.24 "Hg0 mi
5:20 AM39 °FFog.1 mph100%30.24 "Hg0 mi
4:50 AM39 °FFog.1 mph100%30.24 "Hg0 mi
4:20 AM39 °FFog.1 mph100%30.24 "Hg0 mi
3:50 AM39 °FFog.3 mph100%30.24 "Hg0 mi
3:20 AM39 °FFog.1 mph100%30.27 "Hg0 mi
2:50 AM39 °FFog.1 mph100%30.27 "Hg0 mi
2:20 AM39 °FFog.1 mph93%30.27 "Hg1 mi
1:50 AM37 °FFog.2 mph100%30.27 "Hg1 mi
1:20 AM39 °FFog.No wind100%30.27 "Hg0 mi
12:50 AM39 °FFog.1 mph100%30.27 "Hg0 mi
12:20 AM39 °FFog.No wind100%30.27 "Hg0 mi
11:50 PM
Oct 31
41 °FFog.1 mph100%30.27 "Hg0 mi
11:20 PM43 °FFog.No wind93%30.27 "Hg0 mi
10:50 PM41 °FFog.1 mph100%30.27 "Hg0 mi
10:20 PM43 °FFog.1 mph100%30.27 "HgN/A
9:50 PM43 °FFog.1 mph100%30.27 "HgN/A
9:20 PM45 °FPassing clouds.No wind100%30.27 "HgN/A
8:50 PM45 °FClear.No wind100%30.27 "Hg10 mi
8:20 PM46 °FClear.1 mph93%30.27 "Hg10 mi
7:50 PM45 °FClear.2 mph100%30.27 "Hg10 mi
7:20 PM46 °FClear.1 mph93%30.27 "Hg10 mi
6:50 PM46 °FClear.1 mph100%30.27 "Hg10 mi
6:20 PM48 °FClear.2 mph87%30.24 "Hg10 mi
5:50 PM52 °FClear.2 mph82%30.24 "Hg10 mi
5:20 PM54 °FClear.2 mph77%30.24 "Hg10 mi
4:50 PM57 °FPassing clouds.6 mph67%30.24 "HgN/A
4:20 PM61 °FSunny.6 mph59%30.24 "Hg10 mi
3:50 PM61 °FSunny.6 mph59%30.24 "Hg10 mi
3:20 PM63 °FSunny.6 mph59%30.24 "Hg10 mi
2:50 PM63 °FSunny.6 mph59%30.24 "Hg10 mi
2:20 PM63 °FSunny.8 mph59%30.27 "Hg10 mi
1:50 PM63 °FSunny.2 mph59%30.27 "Hg10 mi
1:20 PM63 °FSunny.No wind56%30.27 "Hg10 mi
Weather by CustomWeather, © 2014

See weather overviewHow to use our weather pages